Location: Brantley
(31.5822°N, 86.2569°W)
Time: 06:37:20
(UTC+00:00)

Explorer 7 - Visible Passes

Search period start: 18 February 2026 00:00
Search period end: 28 February 2026 00:00
Orbit: 431 x 545 km, 50.2° (Epoch: 17 February)

Date Brightness Start Highest point End Pass type
(mag) Time Alt. Az. Time Alt. Az. Time Alt. Az.
20 Feb 9.5 01:42:44 10° NNW 01:42:48 10° NNW 01:42:48 10° NNW visible
21 Feb 8.8 01:17:04 10° NNW 01:18:26 17° N 01:18:26 17° N visible
22 Feb 8.2 00:51:23 10° NNW 00:54:08 20° NNE 00:54:08 20° NNE visible
23 Feb 8.2 00:25:40 10° NNW 00:28:27 19° NNE 00:29:55 16° ENE visible
23 Feb 9.4 02:03:19 10° WNW 02:04:19 17° WNW 02:04:19 17° WNW visible
23 Feb 8.3 23:59:56 10° NNW 00:02:37 18° NNE 00:05:22 10° ENE visible
24 Feb 7.9 01:37:29 10° NW 01:40:15 41° W 01:40:15 41° W visible
25 Feb 7.1 01:11:39 10° NW 01:15:23 58° SW 01:16:20 43° S visible
26 Feb 7.0 00:45:47 10° NW 00:49:31 62° SW 00:52:37 15° SSE visible
27 Feb 7.0 00:19:53 10° NW 00:23:36 66° SW 00:27:28 10° SE visible
